PAA2522 EINN-EGGP

Flight info

Callsign PAA2522
Flight time 1h 18m
Altitude 19000
Route AGINI3B AGINI DCT BOFUM
Aircraft DC6/M-SDE1FGHIRWXY/S

Departure

Time 2026-05-07 19:45
Airport Shannon Airport (EINN)

Arrival

Time 2026-05-07 21:03
Airport Liverpool John Lennon Airport (EGGP)
Time Latitude Longitude Altitude Speed Heading
2026-05-07 19:18 52.69128 -8.91510 40 ft 0 kts 191°
2026-05-07 19:31 52.69127 -8.91510 40 ft 2 kts 191°
2026-05-07 19:31 52.69117 -8.91530 41 ft 2 kts 298°
2026-05-07 19:31 52.69135 -8.91536 41 ft 6 kts 359°
2026-05-07 19:32 52.69184 -8.91536 40 ft 2 kts 360°
2026-05-07 19:32 52.69217 -8.91537 40 ft 9 kts 359°
2026-05-07 19:32 52.69298 -8.91506 39 ft 16 kts 19°
2026-05-07 19:32 52.69413 -8.91442 38 ft 19 kts 19°
2026-05-07 19:33 52.69535 -8.91376 37 ft 18 kts 17°
2026-05-07 19:33 52.69645 -8.91321 36 ft 15 kts 17°
2026-05-07 19:33 52.69737 -8.91274 35 ft 12 kts 22°
2026-05-07 19:33 52.69813 -8.91225 34 ft 13 kts 19°
2026-05-07 19:34 52.69924 -8.91160 33 ft 21 kts 20°
2026-05-07 19:34 52.70059 -8.91083 32 ft 19 kts 18°
2026-05-07 19:34 52.70178 -8.91018 31 ft 17 kts 18°
2026-05-07 19:34 52.70280 -8.90962 30 ft 14 kts 18°
2026-05-07 19:35 52.70365 -8.90916 29 ft 12 kts 18°
2026-05-07 19:35 52.70435 -8.90879 28 ft 9 kts 18°
2026-05-07 19:35 52.70494 -8.90848 28 ft 10 kts 17°
2026-05-07 19:35 52.70567 -8.90810 27 ft 12 kts 18°
2026-05-07 19:36 52.70643 -8.90763 26 ft 12 kts 21°
2026-05-07 19:36 52.70720 -8.90715 28 ft 12 kts 20°
2026-05-07 19:36 52.70800 -8.90679 27 ft 12 kts 13°
2026-05-07 19:36 52.70874 -8.90674 26 ft 9 kts 326°
2026-05-07 19:37 52.70880 -8.90681 25 ft 0 kts 326°
2026-05-07 19:40 52.70894 -8.90696 25 ft 10 kts 325°
2026-05-07 19:40 52.70973 -8.90803 23 ft 9 kts 286°
2026-05-07 19:41 52.70960 -8.90866 25 ft 0 kts 230°
2026-05-07 19:42 52.70960 -8.90867 25 ft 0 kts 230°
2026-05-07 19:43 52.70941 -8.90903 25 ft 20 kts 230°
2026-05-07 19:43 52.70765 -8.91283 27 ft 62 kts 232°
2026-05-07 19:44 52.70422 -8.92006 35 ft 97 kts 232°
2026-05-07 19:44 52.69941 -8.92924 111 ft 110 kts 234°
2026-05-07 19:44 52.69432 -8.93884 273 ft 113 kts 226°
2026-05-07 19:44 52.68878 -8.94806 478 ft 112 kts 224°
2026-05-07 19:45 52.68314 -8.95729 650 ft 112 kts 226°
2026-05-07 19:45 52.68042 -8.96868 841 ft 109 kts 262°
2026-05-07 19:45 52.68280 -8.98046 962 ft 113 kts 304°
2026-05-07 19:45 52.68945 -8.98827 1048 ft 122 kts 321°
2026-05-07 19:46 52.69669 -8.99563 1258 ft 120 kts 322°
2026-05-07 19:46 52.70398 -9.00306 1392 ft 124 kts 320°
2026-05-07 19:46 52.71084 -9.01090 1641 ft 120 kts 310°
2026-05-07 19:46 52.71338 -9.02384 1686 ft 127 kts 259°
2026-05-07 19:47 52.71038 -9.03829 1715 ft 141 kts 246°
2026-05-07 19:47 52.70899 -9.05457 1848 ft 151 kts 276°
2026-05-07 19:47 52.71332 -9.07095 1972 ft 162 kts 294°
2026-05-07 19:47 52.71823 -9.08777 2141 ft 164 kts 289°
2026-05-07 19:48 52.72254 -9.10539 2291 ft 166 kts 287°
2026-05-07 19:48 52.72625 -9.12345 2463 ft 165 kts 283°
2026-05-07 19:48 52.73351 -9.13847 2495 ft 179 kts 326°
2026-05-07 19:48 52.74602 -9.14058 2581 ft 190 kts 12°
2026-05-07 19:49 52.75636 -9.12764 2683 ft 195 kts 56°
2026-05-07 19:49 52.76157 -9.10723 2883 ft 190 kts 62°
2026-05-07 19:49 52.76846 -9.08875 3084 ft 189 kts 54°
2026-05-07 19:49 52.77703 -9.07235 3257 ft 189 kts 40°
2026-05-07 19:50 52.78791 -9.06060 3409 ft 187 kts 19°
2026-05-07 19:50 52.80009 -9.05358 3587 ft 186 kts 14°
2026-05-07 19:50 52.81231 -9.04644 3752 ft 187 kts 16°
2026-05-07 19:50 52.82452 -9.03904 3926 ft 187 kts 16°
2026-05-07 19:51 52.83674 -9.03166 4086 ft 187 kts 17°
2026-05-07 19:51 52.84900 -9.02418 4258 ft 188 kts 17°
2026-05-07 19:51 52.86131 -9.01673 4438 ft 189 kts 17°
2026-05-07 19:51 52.87366 -9.00918 4608 ft 189 kts 17°
2026-05-07 19:52 52.88604 -9.00166 4782 ft 190 kts 17°
2026-05-07 19:52 52.89849 -8.99409 4956 ft 191 kts 17°
2026-05-07 19:52 52.91094 -8.98648 5138 ft 191 kts 17°
2026-05-07 19:52 52.92342 -8.97889 5314 ft 191 kts 17°
2026-05-07 19:53 52.93591 -8.97125 5485 ft 192 kts 17°
2026-05-07 19:53 52.94828 -8.96370 5655 ft 192 kts 17°
2026-05-07 19:53 52.96007 -8.95356 5741 ft 196 kts 42°
2026-05-07 19:53 52.96795 -8.93511 5890 ft 195 kts 53°
2026-05-07 19:54 52.97684 -8.91824 6100 ft 194 kts 44°
2026-05-07 19:54 52.98604 -8.90186 6257 ft 195 kts 47°
2026-05-07 19:54 52.99497 -8.88483 6421 ft 195 kts 47°
2026-05-07 19:54 53.00393 -8.86788 6576 ft 196 kts 47°
2026-05-07 19:55 53.01292 -8.85091 6763 ft 195 kts 48°
2026-05-07 19:55 53.02189 -8.83392 6941 ft 195 kts 48°
2026-05-07 19:55 53.03087 -8.81694 7107 ft 196 kts 48°
2026-05-07 19:55 53.03987 -8.79995 7254 ft 196 kts 47°
2026-05-07 19:56 53.04889 -8.78283 7394 ft 197 kts 47°
2026-05-07 19:56 53.05794 -8.76570 7549 ft 198 kts 48°
2026-05-07 19:56 53.06701 -8.74847 7704 ft 198 kts 47°
2026-05-07 19:56 53.07609 -8.73125 7873 ft 198 kts 48°
2026-05-07 19:57 53.08519 -8.71397 8033 ft 198 kts 47°
2026-05-07 19:57 53.09429 -8.69668 8197 ft 199 kts 48°
2026-05-07 19:57 53.10338 -8.67936 8353 ft 199 kts 48°
2026-05-07 19:57 53.11252 -8.66200 8512 ft 200 kts 48°
2026-05-07 19:58 53.12165 -8.64458 8685 ft 200 kts 48°
2026-05-07 19:58 53.13082 -8.62712 8847 ft 200 kts 48°
2026-05-07 19:58 53.13999 -8.60963 9007 ft 201 kts 48°
2026-05-07 19:58 53.14905 -8.59232 9165 ft 201 kts 48°
2026-05-07 19:59 53.15740 -8.57381 9242 ft 202 kts 66°
2026-05-07 19:59 53.15950 -8.55092 9349 ft 199 kts 87°
2026-05-07 19:59 53.16226 -8.52832 9536 ft 199 kts 75°
2026-05-07 19:59 53.16593 -8.50605 9694 ft 199 kts 77°
2026-05-07 20:00 53.16898 -8.48349 9841 ft 200 kts 79°
2026-05-07 20:00 53.17202 -8.46088 9989 ft 200 kts 78°
2026-05-07 20:00 53.17512 -8.43821 10127 ft 201 kts 78°
2026-05-07 20:00 53.17822 -8.41552 10264 ft 201 kts 78°
2026-05-07 20:01 53.18133 -8.39276 10401 ft 201 kts 78°
2026-05-07 20:01 53.18443 -8.36997 10537 ft 202 kts 78°
2026-05-07 20:01 53.18754 -8.34710 10674 ft 202 kts 78°
2026-05-07 20:01 53.19065 -8.32420 10819 ft 203 kts 78°
2026-05-07 20:02 53.19377 -8.30123 10963 ft 203 kts 78°
2026-05-07 20:02 53.19688 -8.27818 11104 ft 204 kts 78°
2026-05-07 20:02 53.20001 -8.25513 11238 ft 204 kts 78°
2026-05-07 20:02 53.20307 -8.23230 11362 ft 205 kts 78°
2026-05-07 20:03 53.20620 -8.20914 11492 ft 205 kts 78°
2026-05-07 20:03 53.20937 -8.18558 11623 ft 206 kts 78°
2026-05-07 20:03 53.21250 -8.16224 11761 ft 206 kts 78°
2026-05-07 20:03 53.21559 -8.13920 11909 ft 207 kts 78°
2026-05-07 20:04 53.21873 -8.11574 12046 ft 207 kts 78°
2026-05-07 20:04 53.22187 -8.09224 12182 ft 208 kts 78°
2026-05-07 20:04 53.22500 -8.06868 12315 ft 208 kts 78°
2026-05-07 20:04 53.22816 -8.04505 12454 ft 209 kts 78°
2026-05-07 20:05 53.23132 -8.02135 12602 ft 209 kts 78°
2026-05-07 20:05 53.23446 -7.99763 12735 ft 210 kts 79°
2026-05-07 20:05 53.23761 -7.97380 12865 ft 210 kts 78°
2026-05-07 20:05 53.24077 -7.94994 13002 ft 211 kts 78°
2026-05-07 20:06 53.24396 -7.92564 13002 ft 218 kts 79°
2026-05-07 20:06 53.24719 -7.90065 13000 ft 221 kts 79°
2026-05-07 20:06 53.25047 -7.87549 12999 ft 222 kts 79°
2026-05-07 20:06 53.25382 -7.85027 12997 ft 223 kts 79°
2026-05-07 20:07 53.25715 -7.82497 12995 ft 224 kts 79°
2026-05-07 20:07 53.26044 -7.79972 12985 ft 220 kts 80°
2026-05-07 20:07 53.26375 -7.77473 12980 ft 222 kts 78°
2026-05-07 20:07 53.26716 -7.74927 13000 ft 227 kts 79°
2026-05-07 20:08 53.27052 -7.72313 12999 ft 233 kts 79°
2026-05-07 20:08 53.27395 -7.69636 13005 ft 238 kts 79°
2026-05-07 20:08 53.27750 -7.66902 12997 ft 243 kts 79°
2026-05-07 20:08 53.28111 -7.64111 13035 ft 246 kts 79°
2026-05-07 20:09 53.28471 -7.61351 13244 ft 241 kts 79°
2026-05-07 20:09 53.28822 -7.58628 13397 ft 238 kts 79°
2026-05-07 20:09 53.29170 -7.55932 13543 ft 237 kts 79°
2026-05-07 20:10 53.29859 -7.50584 13781 ft 234 kts 79°
2026-05-07 20:10 53.30198 -7.47928 13880 ft 233 kts 79°
2026-05-07 20:10 53.30529 -7.45306 13990 ft 233 kts 80°
2026-05-07 20:10 53.30867 -7.42660 14089 ft 233 kts 79°
2026-05-07 20:11 53.31205 -7.40015 14192 ft 232 kts 80°
2026-05-07 20:11 53.31539 -7.37374 14288 ft 232 kts 79°
2026-05-07 20:11 53.31877 -7.34737 14375 ft 232 kts 80°
2026-05-07 20:11 53.32209 -7.32101 14453 ft 231 kts 80°
2026-05-07 20:12 53.32540 -7.29467 14530 ft 231 kts 80°
2026-05-07 20:12 53.32875 -7.26832 14602 ft 231 kts 80°
2026-05-07 20:12 53.33205 -7.24201 14690 ft 231 kts 80°
2026-05-07 20:12 53.33535 -7.21566 14767 ft 231 kts 80°
2026-05-07 20:13 53.33864 -7.18931 14836 ft 231 kts 80°
2026-05-07 20:13 53.34083 -7.17190 14883 ft 231 kts 80°
2026-05-07 20:13 53.34412 -7.14577 15015 ft 228 kts 80°
2026-05-07 20:13 53.34735 -7.11998 15138 ft 225 kts 80°
2026-05-07 20:14 53.35051 -7.09445 15236 ft 223 kts 80°
2026-05-07 20:14 53.35367 -7.06910 15323 ft 222 kts 80°
2026-05-07 20:14 53.35679 -7.04386 15410 ft 221 kts 80°
2026-05-07 20:14 53.35991 -7.01873 15494 ft 220 kts 81°
2026-05-07 20:15 53.36300 -6.99368 15578 ft 219 kts 81°
2026-05-07 20:15 53.36608 -6.96868 15654 ft 219 kts 81°
2026-05-07 20:15 53.36916 -6.94373 15742 ft 219 kts 81°
2026-05-07 20:15 53.37221 -6.91883 15804 ft 218 kts 81°
2026-05-07 20:16 53.37528 -6.89393 15868 ft 218 kts 81°
2026-05-07 20:16 53.37830 -6.86909 15927 ft 218 kts 81°
2026-05-07 20:16 53.38134 -6.84424 15986 ft 218 kts 81°
2026-05-07 20:16 53.38440 -6.81920 15986 ft 221 kts 81°
2026-05-07 20:17 53.38746 -6.79377 15985 ft 224 kts 81°
2026-05-07 20:17 53.39059 -6.76803 15986 ft 227 kts 81°
2026-05-07 20:17 53.39377 -6.74193 15990 ft 230 kts 81°
2026-05-07 20:17 53.39696 -6.71553 15989 ft 232 kts 81°
2026-05-07 20:18 53.40018 -6.68889 15988 ft 234 kts 81°
2026-05-07 20:18 53.40343 -6.66195 15986 ft 236 kts 81°
2026-05-07 20:18 53.40669 -6.63480 15988 ft 239 kts 81°
2026-05-07 20:18 53.41004 -6.60734 16027 ft 240 kts 81°
2026-05-07 20:19 53.41323 -6.58084 16297 ft 231 kts 81°
2026-05-07 20:19 53.41637 -6.55474 16490 ft 226 kts 81°
2026-05-07 20:19 53.41944 -6.52911 16648 ft 222 kts 81°
2026-05-07 20:19 53.42244 -6.50385 16801 ft 220 kts 81°
2026-05-07 20:20 53.42539 -6.47885 16933 ft 218 kts 81°
2026-05-07 20:20 53.42835 -6.45401 17009 ft 219 kts 81°
2026-05-07 20:20 53.43130 -6.42870 17005 ft 223 kts 81°
2026-05-07 20:20 53.43434 -6.40296 17009 ft 227 kts 81°
2026-05-07 20:21 53.43744 -6.37670 17008 ft 232 kts 81°
2026-05-07 20:21 53.44057 -6.35004 17008 ft 235 kts 81°
2026-05-07 20:21 53.44375 -6.32297 17008 ft 238 kts 81°
2026-05-07 20:21 53.44698 -6.29552 17008 ft 242 kts 81°
2026-05-07 20:22 53.45024 -6.26763 17008 ft 245 kts 81°
2026-05-07 20:22 53.45352 -6.23948 17011 ft 247 kts 81°
2026-05-07 20:22 53.45685 -6.21098 17010 ft 249 kts 81°
2026-05-07 20:22 53.46018 -6.18230 17008 ft 251 kts 81°
2026-05-07 20:23 53.46353 -6.15348 17009 ft 252 kts 81°
2026-05-07 20:23 53.46686 -6.12449 17008 ft 253 kts 82°
2026-05-07 20:23 53.47016 -6.09549 17005 ft 252 kts 82°
2026-05-07 20:23 53.47349 -6.06665 17004 ft 251 kts 81°
2026-05-07 20:24 53.47687 -6.03792 16999 ft 251 kts 81°
2026-05-07 20:24 53.48015 -6.00920 16992 ft 251 kts 82°
2026-05-07 20:24 53.48343 -5.98045 16995 ft 250 kts 82°
2026-05-07 20:24 53.48670 -5.95182 16997 ft 250 kts 82°
2026-05-07 20:25 53.48993 -5.92359 16999 ft 249 kts 81°
2026-05-07 20:25 53.49318 -5.89501 17001 ft 249 kts 82°
2026-05-07 20:25 53.49640 -5.86646 16999 ft 249 kts 82°
2026-05-07 20:25 53.49964 -5.83793 17007 ft 248 kts 82°
2026-05-07 20:26 53.50286 -5.80941 17003 ft 248 kts 82°
2026-05-07 20:26 53.50607 -5.78094 17010 ft 248 kts 82°
2026-05-07 20:26 53.50926 -5.75248 17010 ft 248 kts 82°
2026-05-07 20:26 53.51246 -5.72407 17019 ft 248 kts 82°
2026-05-07 20:27 53.51563 -5.69562 17020 ft 247 kts 82°
2026-05-07 20:27 53.51881 -5.66721 17021 ft 247 kts 82°
2026-05-07 20:27 53.52198 -5.63882 17017 ft 247 kts 82°
2026-05-07 20:27 53.52513 -5.61042 17024 ft 247 kts 82°
2026-05-07 20:28 53.52828 -5.58204 17027 ft 247 kts 82°
2026-05-07 20:28 53.53141 -5.55370 17027 ft 247 kts 82°
2026-05-07 20:28 53.53455 -5.52533 17027 ft 247 kts 82°
2026-05-07 20:28 53.53757 -5.49701 17019 ft 245 kts 85°
2026-05-07 20:29 53.53659 -5.46901 17052 ft 238 kts 100°
2026-05-07 20:29 53.53551 -5.44108 17046 ft 240 kts 94°
2026-05-07 20:29 53.53527 -5.41306 17050 ft 240 kts 94°
2026-05-07 20:29 53.53466 -5.38505 17049 ft 240 kts 96°
2026-05-07 20:30 53.53389 -5.35704 17046 ft 241 kts 95°
2026-05-07 20:30 53.53319 -5.32880 17041 ft 243 kts 95°
2026-05-07 20:30 53.53247 -5.30036 17046 ft 244 kts 95°
2026-05-07 20:30 53.53175 -5.27174 17047 ft 246 kts 95°
2026-05-07 20:31 53.53101 -5.24297 17045 ft 247 kts 95°
2026-05-07 20:31 53.53027 -5.21439 17051 ft 248 kts 95°
2026-05-07 20:31 53.52952 -5.18534 17057 ft 249 kts 95°
2026-05-07 20:31 53.52875 -5.15619 17061 ft 250 kts 95°
2026-05-07 20:32 53.52790 -5.12699 17054 ft 251 kts 96°
2026-05-07 20:32 53.52694 -5.09769 17059 ft 251 kts 96°
2026-05-07 20:32 53.52602 -5.06835 17048 ft 252 kts 96°
2026-05-07 20:32 53.52510 -5.03892 17063 ft 252 kts 96°
2026-05-07 20:33 53.52417 -5.00949 17060 ft 253 kts 96°
2026-05-07 20:33 53.52323 -4.97998 17065 ft 253 kts 96°
2026-05-07 20:33 53.52228 -4.95044 17060 ft 253 kts 96°
2026-05-07 20:33 53.52132 -4.92086 17062 ft 253 kts 96°
2026-05-07 20:34 53.52036 -4.89128 17062 ft 254 kts 96°
2026-05-07 20:34 53.51939 -4.86171 17059 ft 254 kts 96°
2026-05-07 20:34 53.51841 -4.83210 17057 ft 254 kts 96°
2026-05-07 20:34 53.51743 -4.80247 17058 ft 254 kts 96°
2026-05-07 20:35 53.51645 -4.77285 17062 ft 254 kts 96°
2026-05-07 20:35 53.51547 -4.74366 17066 ft 254 kts 96°
2026-05-07 20:35 53.51448 -4.71401 17055 ft 254 kts 96°
2026-05-07 20:35 53.51346 -4.68437 17063 ft 254 kts 96°
2026-05-07 20:36 53.51246 -4.65470 17064 ft 254 kts 96°
2026-05-07 20:36 53.51143 -4.62516 17064 ft 254 kts 96°
2026-05-07 20:36 53.51045 -4.59686 17063 ft 254 kts 96°
2026-05-07 20:36 53.50941 -4.56721 17055 ft 254 kts 96°
2026-05-07 20:37 53.50837 -4.53750 17060 ft 254 kts 96°
2026-05-07 20:37 53.50731 -4.50784 17057 ft 255 kts 96°
2026-05-07 20:37 53.50625 -4.47820 17055 ft 253 kts 96°
2026-05-07 20:37 53.50511 -4.44888 16910 ft 253 kts 97°
2026-05-07 20:38 53.50399 -4.41919 16613 ft 254 kts 96°
2026-05-07 20:38 53.50286 -4.38943 16345 ft 257 kts 96°
2026-05-07 20:38 53.50179 -4.35920 16105 ft 261 kts 96°
2026-05-07 20:38 53.50068 -4.32866 15873 ft 263 kts 96°
2026-05-07 20:39 53.49953 -4.29769 15564 ft 268 kts 96°
2026-05-07 20:39 53.49841 -4.26661 15234 ft 264 kts 96°
2026-05-07 20:39 53.49726 -4.23604 14887 ft 260 kts 96°
2026-05-07 20:39 53.49610 -4.20594 14543 ft 257 kts 96°
2026-05-07 20:40 53.49495 -4.17608 14202 ft 255 kts 96°
2026-05-07 20:40 53.49382 -4.14654 13868 ft 252 kts 96°
2026-05-07 20:40 53.49268 -4.11722 13505 ft 251 kts 96°
2026-05-07 20:40 53.49155 -4.08812 13137 ft 249 kts 96°
2026-05-07 20:41 53.49041 -4.05918 12778 ft 248 kts 96°
2026-05-07 20:41 53.48928 -4.03041 12432 ft 246 kts 96°
2026-05-07 20:41 53.48814 -4.00177 12091 ft 245 kts 96°
2026-05-07 20:41 53.48700 -3.97327 11761 ft 244 kts 96°
2026-05-07 20:42 53.48418 -3.94557 11380 ft 239 kts 115°
2026-05-07 20:42 53.47761 -3.92011 11065 ft 238 kts 114°
2026-05-07 20:42 53.47238 -3.89379 10760 ft 237 kts 110°
2026-05-07 20:42 53.46732 -3.86746 10453 ft 237 kts 111°
2026-05-07 20:43 53.46190 -3.84142 10154 ft 236 kts 112°
2026-05-07 20:43 53.45653 -3.81574 9855 ft 236 kts 112°
2026-05-07 20:43 53.45115 -3.78976 9530 ft 236 kts 112°
2026-05-07 20:43 53.44576 -3.76373 9210 ft 236 kts 112°
2026-05-07 20:44 53.44038 -3.73782 8898 ft 235 kts 112°
2026-05-07 20:44 53.43499 -3.71189 8592 ft 235 kts 112°
2026-05-07 20:44 53.42960 -3.68596 8294 ft 235 kts 112°
2026-05-07 20:44 53.42420 -3.66008 7990 ft 235 kts 112°
2026-05-07 20:45 53.41879 -3.63411 7713 ft 236 kts 112°
2026-05-07 20:45 53.41372 -3.60808 7422 ft 236 kts 105°
2026-05-07 20:45 53.41508 -3.58046 7067 ft 241 kts 76°
2026-05-07 20:45 53.41825 -3.55300 6791 ft 240 kts 86°
2026-05-07 20:46 53.41932 -3.52509 6531 ft 240 kts 88°
2026-05-07 20:46 53.42094 -3.49718 6261 ft 241 kts 85°
2026-05-07 20:46 53.42308 -3.46927 5998 ft 241 kts 85°
2026-05-07 20:46 53.42505 -3.44132 5717 ft 242 kts 85°
2026-05-07 20:47 53.42695 -3.41327 5452 ft 242 kts 85°
2026-05-07 20:47 53.42886 -3.38520 5194 ft 243 kts 85°
2026-05-07 20:47 53.43077 -3.35706 4945 ft 243 kts 85°
2026-05-07 20:47 53.43269 -3.32895 4689 ft 243 kts 85°
2026-05-07 20:48 53.43459 -3.30076 4433 ft 243 kts 85°
2026-05-07 20:48 53.43473 -3.27282 4108 ft 239 kts 105°
2026-05-07 20:48 53.42880 -3.24754 3853 ft 236 kts 114°
2026-05-07 20:48 53.42432 -3.22099 3615 ft 237 kts 105°
2026-05-07 20:49 53.42054 -3.19450 3360 ft 231 kts 107°
2026-05-07 20:49 53.41616 -3.16895 3088 ft 226 kts 109°
2026-05-07 20:49 53.41178 -3.14392 2816 ft 222 kts 108°
2026-05-07 20:49 53.40752 -3.11931 2761 ft 213 kts 109°
2026-05-07 20:50 53.40362 -3.09586 2764 ft 206 kts 107°
2026-05-07 20:50 53.40024 -3.07311 2742 ft 197 kts 99°
2026-05-07 20:50 53.40385 -3.05143 2726 ft 198 kts 52°
2026-05-07 20:50 53.41191 -3.03334 2759 ft 189 kts 59°
2026-05-07 20:51 53.41807 -3.01421 2742 ft 184 kts 68°
2026-05-07 20:51 53.42060 -2.99399 2773 ft 175 kts 83°
2026-05-07 20:51 53.42332 -2.97424 2756 ft 172 kts 76°
2026-05-07 20:51 53.42632 -2.95526 2770 ft 167 kts 77°
2026-05-07 20:52 53.42906 -2.93665 2758 ft 163 kts 78°
2026-05-07 20:52 53.43174 -2.91825 2759 ft 161 kts 76°
2026-05-07 20:52 53.43468 -2.89971 2804 ft 169 kts 77°
2026-05-07 20:52 53.43774 -2.87953 2801 ft 187 kts 76°
2026-05-07 20:53 53.44115 -2.85759 2827 ft 203 kts 77°
2026-05-07 20:53 53.44457 -2.83411 2800 ft 211 kts 78°
2026-05-07 20:53 53.44807 -2.80993 2779 ft 215 kts 78°
2026-05-07 20:53 53.45163 -2.78519 2776 ft 219 kts 78°
2026-05-07 20:54 53.45538 -2.76034 2779 ft 220 kts 77°
2026-05-07 20:54 53.45917 -2.73531 2767 ft 223 kts 77°
2026-05-07 20:54 53.46308 -2.70997 2774 ft 225 kts 77°
2026-05-07 20:54 53.46692 -2.68455 2786 ft 225 kts 77°
2026-05-07 20:55 53.47078 -2.65891 2776 ft 228 kts 77°
2026-05-07 20:55 53.47471 -2.63317 2762 ft 226 kts 78°
2026-05-07 20:55 53.47850 -2.60808 2766 ft 218 kts 78°
2026-05-07 20:55 53.47819 -2.58359 2741 ft 207 kts 113°
2026-05-07 20:56 53.46918 -2.56650 2764 ft 194 kts 155°
2026-05-07 20:56 53.45644 -2.56217 2795 ft 184 kts 173°
2026-05-07 20:56 53.44429 -2.55618 2789 ft 186 kts 162°
2026-05-07 20:56 53.43196 -2.54894 2788 ft 188 kts 163°
2026-05-07 20:57 53.41963 -2.54202 2786 ft 185 kts 164°
2026-05-07 20:57 53.40727 -2.53739 2748 ft 182 kts 185°
2026-05-07 20:57 53.39532 -2.54238 2782 ft 177 kts 191°
2026-05-07 20:57 53.38301 -2.54382 2793 ft 179 kts 184°
2026-05-07 20:58 53.37052 -2.54499 2796 ft 179 kts 184°
2026-05-07 20:58 53.35840 -2.54590 2788 ft 170 kts 184°
2026-05-07 20:58 53.34689 -2.54779 2743 ft 163 kts 199°
2026-05-07 20:58 53.33823 -2.55919 2811 ft 153 kts 228°
2026-05-07 20:59 53.33156 -2.57202 2881 ft 145 kts 233°
2026-05-07 20:59 53.32994 -2.58918 2621 ft 161 kts 283°
2026-05-07 20:59 53.33684 -2.60289 2731 ft 151 kts 315°
2026-05-07 20:59 53.34292 -2.61681 2876 ft 144 kts 296°
2026-05-07 21:00 53.34490 -2.63190 2994 ft 134 kts 262°
2026-05-07 21:00 53.34350 -2.64745 3014 ft 136 kts 252°
2026-05-07 21:00 53.34132 -2.66296 2922 ft 136 kts 256°
2026-05-07 21:00 53.34007 -2.67852 2712 ft 136 kts 262°
2026-05-07 21:01 53.33986 -2.69444 2410 ft 136 kts 265°
2026-05-07 21:01 53.33956 -2.71064 2222 ft 139 kts 261°
2026-05-07 21:01 53.33883 -2.72681 2015 ft 139 kts 263°
2026-05-07 21:01 53.33829 -2.74247 1838 ft 126 kts 263°
2026-05-07 21:02 53.33739 -2.75736 1585 ft 129 kts 258°
2026-05-07 21:02 53.33653 -2.77222 1237 ft 127 kts 263°
2026-05-07 21:02 53.33618 -2.78702 1014 ft 127 kts 264°
2026-05-07 21:02 53.33564 -2.80197 686 ft 129 kts 263°
2026-05-07 21:03 53.33497 -2.81679 378 ft 126 kts 265°
2026-05-07 21:03 53.33438 -2.83101 150 ft 118 kts 265°
2026-05-07 21:03 53.33403 -2.83986 86 ft 107 kts 265°
2026-05-07 21:03 53.33364 -2.84927 85 ft 46 kts 266°
2026-05-07 21:04 53.33352 -2.85201 88 ft 17 kts 278°
2026-05-07 21:04 53.33396 -2.85438 86 ft 25 kts 292°
2026-05-07 21:04 53.33463 -2.85703 86 ft 23 kts 292°
2026-05-07 21:04 53.33511 -2.85923 88 ft 17 kts 324°
2026-05-07 21:05 53.33591 -2.86040 88 ft 13 kts 335°
2026-05-07 21:05 53.33646 -2.86023 88 ft 3 kts 104°
2026-05-07 21:05 53.33641 -2.86012 86 ft 1 kts 156°
2026-05-07 21:05 53.33631 -2.86010 87 ft 0 kts 174°